Location: Poughquag
(41.6090°N, 73.6820°W)
Time: 11:32:45
(UTC-05:00)

N. Korean satellite - Pass Details

Date: 20 January 2020
Orbit: 456 x 505 km, 97.2° (Epoch: 24 February)

Event Time Altitude Azimuth Distance (km) Brightness Sun altitude
Rises 06:00:47 0° 6° (N) 2,518 10.1 -14.1°
Reaches altitude 10° 06:02:51 10° 2° (N) 1,644 9.1 -13.7°
Maximum altitude 06:06:17 53° 285° (WNW) 592 6.6 -13.1°
Drops below altitude 10° 06:09:46 10° 208° (SSW) 1,658 9.1 -12.5°
Sets 06:11:52 0° 203° (SSW) 2,542 10.1 -12.1°
